Find Starlink 11247

NORAD ID: 60720 Int'l Des: 2024-152 Owner: SPXS Country: US Constellation: starlink operational
又名: STARLINK-11247 [DTC] celestrak
LEOCIRCULAR

当前视图

正在加载3D地球...

About Starlink 11247

Starlink 11247 (NORAD 60720) is a starlink constellation satellite (v2 mini d2c) launched Aug 28, 2024 by SPXS of US. It operates in LEO, CIRCULAR orbit with a mass of 960.00 kg.

即将过境

Passes for default location (London). Set your location on the main map for personalized predictions.

高度历史

Loading altitude history...

两行轨道根数

1 60720U 24152A 26236.34940343 -.00004062 00000-0 -28700-4 0 9993
2 60720 53.1590 10.0714 0002018 319.1625 40.9241 15.69688927115166
Epoch: Aug 24, 2026 • Age: 30 hours

当前状态

高度 362.9 km
远地点 / 近地点 N/A
速度 7.69 km/s
星下点 -7.33°S, 2.26°E
发射日期 Aug 28, 2024
运行时间 1.9 years
类型 internet

技术详情

分类 Payload
质量 960.00 kg
干质量 910.00 kg
总质量 960.00 kg
长度 0.30 m
直径 4.10 m
跨度 29.00 m
形状 Box + pan
制造商 SPXS
平台类型 Starlink V2MD
阶段状态 In Orbit
所有者/国家 SPXS/US

Most Searched